Whidbey Island, WA
on Monday, December 24, 2012

Monday
Previous Day Next Day
Daily Summary
 ActualAverageRecord
Temperature
Mean Temperature °F / °C °F / °C  
Max Temperature 46°F / 8°C 43°F / 6°C 52°F / 11°C (2011)
Min Temperature 36°F / 2°C 33°F / 0°C 30°F / -1°C (1996)
Degree Days
Heating Degree Days 24    
Moisture
Dew Point 36°F / 2°C   
Average Humidity 87    
Maximum Humidity 93    
Minimum Humidity 79    
Precipitation
Precipitation 0.00 in / 0.00 cm in / cm in / cm ()
Wind
Wind Speed 5 mph / 8 km/h   
Max Wind Speed 16 mph / 26 km/h   
Max Gust Speed 21 mph / 34 km/h   
Visibility 9 miles / 15 kilometers   
Events Fog , Rain   
Averages and records for this station are not official NWS values.
Key: T is trace of precipitation, MM is missing value
Source: NWS Daily Summary
Seasonal Weather Averages
Time(PST)TemperatureDew PointHumidity Pressure Visibility Wind DirectionWind SpeedGust SpeedPrecipitationEvents Conditions
12:56 AM 39.0°F / 3.9°C 36.0°F / 2.2°C 89% 29.86 in / 1011.1 hPa 5.0 miles / 8.0 kilometers Calm Calm - N/A   Overcast
1:56 AM 39.0°F / 3.9°C 36.0°F / 2.2°C 89% 29.88 in / 1011.9 hPa 10.0 miles / 16.1 kilometers ESE 3.5 mph / 5.6 km/h - N/A   Overcast
2:37 AM 39.2°F / 4.0°C 35.6°F / 2.0°C 87% 29.90 in / 1012.4 hPa 10.0 miles / 16.1 kilometers ESE 3.5 mph / 5.6 km/h - 0.00 in / 0.0 cm   Overcast
2:56 AM 39.0°F / 3.9°C 36.0°F / 2.2°C 89% 29.92 in / 1013.2 hPa 10.0 miles / 16.1 kilometers ESE 3.5 mph / 5.6 km/h - 0.00 in / 0.0 cm   Overcast
3:56 AM 37.9°F / 3.3°C 35.1°F / 1.7°C 89% 29.95 in / 1014.2 hPa 10.0 miles / 16.1 kilometers ESE 3.5 mph / 5.6 km/h - 0.00 in / 0.0 cm Rain Light Rain
4:05 AM 39.2°F / 4.0°C 35.6°F / 2.0°C 87% 29.94 in / 1013.8 hPa 10.0 miles / 16.1 kilometers ESE 3.5 mph / 5.6 km/h - 0.00 in / 0.0 cm   Overcast
4:19 AM 39.2°F / 4.0°C 35.6°F / 2.0°C 87% 29.95 in / 1014.1 hPa 10.0 miles / 16.1 kilometers ESE 3.5 mph / 5.6 km/h - 0.00 in / 0.0 cm Rain Light Rain
4:39 AM 39.2°F / 4.0°C 35.6°F / 2.0°C 87% 29.95 in / 1014.1 hPa 10.0 miles / 16.1 kilometers ESE 3.5 mph / 5.6 km/h - 0.00 in / 0.0 cm   Overcast
4:56 AM 37.0°F / 2.8°C 35.1°F / 1.7°C 93% 29.98 in / 1015.0 hPa 10.0 miles / 16.1 kilometers ESE 3.5 mph / 5.6 km/h - 0.00 in / 0.0 cm   Mostly Cloudy
5:56 AM 37.0°F / 2.8°C 34.0°F / 1.1°C 89% 30.01 in / 1016.2 hPa 10.0 miles / 16.1 kilometers ESE 5.8 mph / 9.3 km/h - N/A   Mostly Cloudy
6:56 AM 36.0°F / 2.2°C 34.0°F / 1.1°C 93% 30.03 in / 1016.9 hPa 8.0 miles / 12.9 kilometers ESE 4.6 mph / 7.4 km/h - N/A   Mostly Cloudy
7:56 AM 36.0°F / 2.2°C 33.1°F / 0.6°C 89% 30.06 in / 1017.7 hPa 7.0 miles / 11.3 kilometers ESE 5.8 mph / 9.3 km/h - N/A Fog Patches of Fog
8:56 AM 36.0°F / 2.2°C 33.1°F / 0.6°C 89% 30.10 in / 1019.1 hPa 7.0 miles / 11.3 kilometers East 5.8 mph / 9.3 km/h - N/A Fog Patches of Fog
9:56 AM 39.0°F / 3.9°C 37.0°F / 2.8°C 93% 30.12 in / 1019.7 hPa 8.0 miles / 12.9 kilometers East 8.1 mph / 13.0 km/h - N/A   Mostly Cloudy
10:56 AM 42.1°F / 5.6°C 39.0°F / 3.9°C 89% 30.14 in / 1020.4 hPa 8.0 miles / 12.9 kilometers SE 6.9 mph / 11.1 km/h - N/A   Mostly Cloudy
11:14 AM 42.8°F / 6.0°C 39.2°F / 4.0°C 87% 30.13 in / 1020.2 hPa 8.0 miles / 12.9 kilometers SE 8.1 mph / 13.0 km/h - N/A   Overcast
11:56 AM 42.1°F / 5.6°C 39.0°F / 3.9°C 89% 30.15 in / 1021.0 hPa 10.0 miles / 16.1 kilometers SE 5.8 mph / 9.3 km/h - N/A   Overcast
12:30 PM 42.8°F / 6.0°C 39.2°F / 4.0°C 87% 30.14 in / 1020.5 hPa 10.0 miles / 16.1 kilometers ESE 4.6 mph / 7.4 km/h - N/A   Overcast
12:56 PM 43.0°F / 6.1°C 39.0°F / 3.9°C 86% 30.16 in / 1021.2 hPa 10.0 miles / 16.1 kilometers SSE 8.1 mph / 13.0 km/h - N/A   Overcast
1:17 PM 42.8°F / 6.0°C 39.2°F / 4.0°C 87% 30.16 in / 1021.2 hPa 8.0 miles / 12.9 kilometers East 4.6 mph / 7.4 km/h - N/A   Overcast
1:56 PM 46.0°F / 7.8°C 41.0°F / 5.0°C 83% 30.17 in / 1021.4 hPa 10.0 miles / 16.1 kilometers SE 9.2 mph / 14.8 km/h - N/A   Overcast
2:56 PM 44.1°F / 6.7°C 37.9°F / 3.3°C 79% 30.17 in / 1021.6 hPa 8.0 miles / 12.9 kilometers SE 8.1 mph / 13.0 km/h - N/A   Overcast
3:56 PM 41.0°F / 5.0°C 36.0°F / 2.2°C 82% 30.17 in / 1021.6 hPa 10.0 miles / 16.1 kilometers East 4.6 mph / 7.4 km/h - N/A   Overcast
4:56 PM 39.0°F / 3.9°C 35.1°F / 1.7°C 86% 30.17 in / 1021.4 hPa 10.0 miles / 16.1 kilometers East 5.8 mph / 9.3 km/h - N/A   Mostly Cloudy
5:56 PM 39.0°F / 3.9°C 35.1°F / 1.7°C 86% 30.16 in / 1021.2 hPa 10.0 miles / 16.1 kilometers East 6.9 mph / 11.1 km/h - N/A   Mostly Cloudy
6:56 PM 41.0°F / 5.0°C 37.0°F / 2.8°C 86% 30.14 in / 1020.6 hPa 10.0 miles / 16.1 kilometers ESE 8.1 mph / 13.0 km/h - N/A   Overcast
7:56 PM 41.0°F / 5.0°C 37.0°F / 2.8°C 86% 30.10 in / 1019.2 hPa 10.0 miles / 16.1 kilometers ESE 13.8 mph / 22.2 km/h 20.7 mph / 33.3 km/h N/A   Overcast
8:56 PM 39.9°F / 4.4°C 36.0°F / 2.2°C 86% 30.11 in / 1019.6 hPa 10.0 miles / 16.1 kilometers ESE 9.2 mph / 14.8 km/h - N/A   Overcast
9:39 PM 39.2°F / 4.0°C 35.6°F / 2.0°C 87% 30.08 in / 1018.5 hPa 10.0 miles / 16.1 kilometers East 12.7 mph / 20.4 km/h - N/A   Overcast
9:56 PM 39.9°F / 4.4°C 36.0°F / 2.2°C 86% 30.09 in / 1019.0 hPa 10.0 miles / 16.1 kilometers ESE 11.5 mph / 18.5 km/h - N/A   Overcast
10:56 PM 39.9°F / 4.4°C 36.0°F / 2.2°C 86% 30.09 in / 1018.7 hPa 10.0 miles / 16.1 kilometers East 12.7 mph / 20.4 km/h - N/A   Overcast
11:56 PM 39.9°F / 4.4°C 35.1°F / 1.7°C 83% 30.06 in / 1017.8 hPa 10.0 miles / 16.1 kilometers ESE 16.1 mph / 25.9 km/h - N/A   Overcast
Moon Phase
Dec. 24 Dec. 28 Jan. 04 Jan. 11 Jan. 18
Sunrise:08:00 AM (PST) Moon Rise:01:56 PM (PST)
Sunset:04:20 PM (PST) Moon Set:04:37 AM (PST)

Copyright © 2014 The Weather Underground, Inc.